Find Starlink 32283

NORAD ID: 62425 Int'l Des: 2024-249 Owner: SPXS Country: US Constellation: starlink operational
LEOCIRCULAR

Current View

Loading 3D Globe...

About Starlink 32283

Starlink 32283 (NORAD 62425) is a starlink constellation satellite (v2 mini) launched Dec 23, 2024 by SPXS of US. It operates in LEO, CIRCULAR orbit with a mass of 730.00 kg.

About Starlink 32283

Description loading...

Upcoming Passes

Passes for default location (London). Set your location on the main map for personalized predictions.

Altitude History

Loading altitude history...

Two-Line Element Set

1 62425U 24249S 26169.50824871 .00007997 00000-0 29982-3 0 9994
2 62425 43.0019 101.1407 0001037 264.6062 95.4671 15.27579546 83272
Epoch: Jun 18, 2026 • Age: 14 hours

Current Status

Altitude 489.7 km
Velocity 7.62 km/s
Sub-Earth Point -27.85°S, 19.09°E
Launch Date Dec 23, 2024
Age 1.4 years
Type internet

Technical Details

Classification Payload
Mass 730.00 kg
Dry Mass 700.00 kg
Total Mass 730.00 kg
Length 0.30 m
Diameter 4.10 m
Span 29.00 m
Shape Box + pan
Manufacturer SPXS
Bus Type Starlink V2M
Phase Status In Orbit
Owner/State SPXS/US

Most Searched